Date String (YYYY-MM-DD hh:mm:ss) UTC,Instrument flags,absolute air pressure of the measurement (hPa),sample flow rate (lpm),inlet stack bypass flow (lpm),air temperature of the measurement (°C),ambient temperature measured by the external sensor (°C),aerosol sample conditioner tube jacket temperature (°C),OPC LED temperature (°C),internal box temperature (°C),relative humidity of the measurement (%),span deviation,mass concentration of particles derived from Lorenz-Mie calculation of OPC scattering (μg/m³),mass concentration of particles derived from Lorenz-Mie calculation of OPC scattering (μg/m³),mass concentration of particles derived from Lorenz-Mie calculation of OPC scattering (μg/m³)
DateTimeUTC,F1_M11,P_M11,Q1_M11,Q2_M11,T1_M11,T2_M11,T3_M11,T4_M11,T5_M11,U1_M11,ZSPAN_M11,X2_M11,X0_M11,X1_M11
2023-07-25 17:00:00,SystemResetWarning,0834.8,4.99,000.00,029.2,027.0,000.0,037.4,030.8,23.6,0000.0,0004.39,0009.93,0003.52
2023-07-25 17:01:00,SystemResetWarning,0834.5,5.01,000.00,029.1,025.6,000.0,037.3,030.6,25.2,0000.0,0004.35,0009.61,0003.52
2023-07-25 17:02:00,SystemResetWarning,0834.5,5.01,000.00,029.1,025.5,000.0,037.3,030.5,24.7,0000.0,0004.36,0009.01,0003.50
2023-07-25 17:03:00,SystemResetWarning,0834.5,4.99,000.00,029.0,025.9,000.0,037.3,030.5,23.8,0000.0,0004.29,0008.68,0003.49
2023-07-25 17:04:00,SystemResetWarning,0834.5,5.00,000.00,029.0,026.3,000.0,037.4,030.5,23.6,0000.0,0004.27,0008.72,0003.47
2023-07-25 17:05:00,SystemResetWarning,0834.4,5.00,000.00,029.0,026.7,000.0,037.4,030.5,23.6,0000.0,0004.27,0008.93,0003.47
2023-07-25 17:06:00,SystemResetWarning,0834.4,5.00,000.00,029.0,027.0,000.0,037.4,030.7,22.0,0000.0,0004.29,0009.13,0003.48
2023-07-25 17:07:00,SystemResetWarning,0834.5,4.99,000.00,029.1,027.3,000.0,037.4,030.7,22.8,0000.0,0004.28,0009.19,0003.49
2023-07-25 17:08:00,SystemResetWarning,0834.4,4.99,000.00,029.1,027.6,000.0,037.5,030.8,23.2,0000.0,0004.32,0010.72,0003.50
2023-07-25 17:09:00,SystemResetWarning,0834.5,5.00,000.00,029.2,027.7,000.0,037.5,030.8,23.5,0000.0,0004.31,0010.96,0003.52
2023-07-25 17:10:00,SystemResetWarning,0834.3,5.00,000.00,029.2,026.5,000.0,037.4,030.7,24.3,0000.0,0004.32,0011.54,0003.53
2023-07-25 17:11:00,SystemResetWarning,0834.4,5.00,000.00,029.1,025.5,000.0,037.3,030.6,23.3,0000.0,0004.34,0012.95,0003.53
2023-07-25 17:12:00,SystemResetWarning,0834.3,5.01,000.00,029.1,025.8,000.0,037.2,030.5,25.2,0000.0,0004.35,0013.43,0003.53
2023-07-25 17:13:00,SystemResetWarning,0834.3,5.01,000.00,029.0,026.1,000.0,037.3,030.4,25.0,0000.0,0004.40,0013.53,0003.54
2023-07-25 17:14:00,SystemResetWarning,0834.3,5.00,000.00,029.0,026.5,000.0,037.3,030.5,25.1,0000.0,0004.50,0014.30,0003.53
2023-07-25 17:15:00,SystemResetWarning,0834.4,5.00,000.00,029.0,026.9,000.0,037.4,030.6,25.4,0000.0,0004.55,0014.72,0003.54
2023-07-25 17:16:00,SystemResetWarning,0834.4,4.99,000.00,029.1,027.3,000.0,037.4,030.7,22.5,0000.0,0004.59,0014.89,0003.54
2023-07-25 17:17:00,SystemResetWarning,0834.4,4.99,000.00,029.1,027.6,000.0,037.4,030.8,22.5,0000.0,0004.56,0015.22,0003.54
2023-07-25 17:18:00,SystemResetWarning,0834.3,5.00,000.00,029.1,027.2,000.0,037.4,030.8,25.0,0000.0,0004.56,0014.95,0003.53
2023-07-25 17:19:00,SystemResetWarning,0834.3,5.00,000.00,029.1,025.8,000.0,037.3,030.6,23.2,0000.0,0004.55,0013.39,0003.52
2023-07-25 17:20:00,SystemResetWarning,0834.3,5.00,000.00,029.0,025.5,000.0,037.2,030.5,23.3,0000.0,0004.57,0013.03,0003.51
2023-07-25 17:21:00,SystemResetWarning,0834.4,5.02,000.00,029.0,025.8,000.0,037.2,030.4,23.3,0000.0,0004.59,0012.58,0003.51
2023-07-25 17:22:00,SystemResetWarning,0834.5,5.00,000.00,029.0,026.2,000.0,037.3,030.4,23.1,0000.0,0004.57,0011.09,0003.50
2023-07-25 17:23:00,SystemResetWarning,0834.4,5.00,000.00,029.0,026.6,000.0,037.3,030.5,23.8,0000.0,0004.55,0010.89,0003.49
2023-07-25 17:24:00,SystemResetWarning,0834.3,5.00,000.00,029.0,027.0,000.0,037.4,030.6,23.4,0000.0,0004.46,0010.96,0003.49
2023-07-25 17:25:00,SystemResetWarning,0834.3,5.00,000.00,029.0,027.3,000.0,037.4,030.7,24.3,0000.0,0004.38,0010.45,0003.50
2023-07-25 17:26:00,SystemResetWarning,0834.3,4.99,000.00,029.1,027.5,000.0,037.4,030.7,22.9,0000.0,0004.34,0009.99,0003.49
2023-07-25 17:27:00,SystemResetWarning,0834.4,4.98,000.00,029.1,026.4,000.0,037.3,030.6,23.3,0000.0,0004.30,0009.69,0003.48
2023-07-25 17:28:00,SystemResetWarning,0834.3,5.01,000.00,029.0,025.4,000.0,037.2,030.4,22.7,0000.0,0004.31,0009.17,0003.47
2023-07-25 17:29:00,SystemResetWarning,0834.4,5.01,000.00,029.0,025.7,000.0,037.1,030.4,22.4,0000.0,0004.29,0008.80,0003.46
2023-07-25 17:30:00,SystemResetWarning,0834.4,4.99,000.00,028.9,026.0,000.0,037.2,030.4,22.3,0000.0,0004.28,0008.80,0003.45
2023-07-25 17:31:00,SystemResetWarning,0834.5,5.00,000.00,028.9,026.4,000.0,037.2,030.4,24.1,0000.0,0004.28,0008.86,0003.44
2023-07-25 17:32:00,SystemResetWarning,0834.5,5.00,000.00,028.9,026.8,000.0,037.3,030.5,23.4,0000.0,0004.25,0009.05,0003.42
2023-07-25 17:33:00,SystemResetWarning,0834.5,5.01,000.00,029.0,027.2,000.0,037.3,030.6,23.8,0000.0,0004.24,0009.55,0003.42
2023-07-25 17:34:00,SystemResetWarning,0834.4,4.99,000.00,029.0,027.5,000.0,037.3,030.7,24.2,0000.0,0004.26,0009.42,0003.43
2023-07-25 17:35:00,SystemResetWarning,0834.5,5.00,000.00,029.1,027.6,000.0,037.3,030.8,24.2,0000.0,0004.32,0009.36,0003.43
2023-07-25 17:36:00,SystemResetWarning,0834.3,5.00,000.00,029.1,026.6,000.0,037.3,030.6,24.3,0000.0,0004.32,0009.68,0003.43
2023-07-25 17:37:00,SystemResetWarning,0834.2,4.99,000.00,029.0,025.5,000.0,037.2,030.4,24.7,0000.0,0004.33,0009.97,0003.42
2023-07-25 17:38:00,SystemResetWarning,0834.2,5.01,000.00,029.0,025.7,000.0,037.1,030.4,25.1,0000.0,0004.38,0010.10,0003.42
2023-07-25 17:39:00,SystemResetWarning,0834.2,5.01,000.00,028.9,026.1,000.0,037.2,030.4,25.5,0000.0,0004.40,0010.14,0003.42
2023-07-25 17:40:00,SystemResetWarning,0834.2,5.00,000.00,028.9,026.5,000.0,037.2,030.4,24.6,0000.0,0004.43,0010.44,0003.43
2023-07-25 17:41:00,SystemResetWarning,0834.2,5.00,000.00,028.9,026.8,000.0,037.3,030.5,24.3,0000.0,0004.43,0010.75,0003.43
2023-07-25 17:42:00,SystemResetWarning,0834.2,5.00,000.00,029.0,027.2,000.0,037.3,030.6,24.7,0000.0,0004.40,0010.76,0003.43
2023-07-25 17:43:00,SystemResetWarning,0834.2,5.00,000.00,029.0,027.5,000.0,037.3,030.7,24.5,0000.0,0004.42,0010.62,0003.43
2023-07-25 17:44:00,SystemResetWarning,0834.2,4.99,000.00,029.1,027.3,000.0,037.3,030.7,25.4,0000.0,0004.43,0010.15,0003.44
2023-07-25 17:45:00,SystemResetWarning,0834.2,4.99,000.00,029.0,025.9,000.0,037.2,030.5,25.0,0000.0,0004.45,0010.34,0003.43
2023-07-25 17:46:00,SystemResetWarning,0834.2,5.02,000.00,029.0,025.5,000.0,037.1,030.4,24.5,0000.0,0004.40,0010.48,0003.42
2023-07-25 17:47:00,SystemResetWarning,0834.2,5.00,000.00,028.9,025.9,000.0,037.1,030.4,25.9,0000.0,0004.36,0010.67,0003.40
2023-07-25 17:48:00,SystemResetWarning,0834.2,4.99,000.00,028.9,026.2,000.0,037.2,030.4,23.3,0000.0,0004.37,0010.77,0003.42
2023-07-25 17:49:00,SystemResetWarning,0834.1,5.00,000.00,028.9,026.6,000.0,037.2,030.5,22.2,0000.0,0004.35,0010.89,0003.43
2023-07-25 17:50:00,SystemResetWarning,0834.1,5.00,000.00,028.9,027.0,000.0,037.3,030.6,20.6,0000.0,0004.36,0011.47,0003.43
2023-07-25 17:51:00,SystemResetWarning,0834.2,4.99,000.00,029.0,027.3,000.0,037.3,030.6,21.4,0000.0,0004.39,0011.74,0003.43
2023-07-25 17:52:00,SystemResetWarning,0834.2,5.00,000.00,029.0,027.6,000.0,037.3,030.7,21.5,0000.0,0004.40,0011.78,0003.42
2023-07-25 17:53:00,SystemResetWarning,0834.1,4.99,000.00,029.0,026.6,000.0,037.2,030.6,23.3,0000.0,0004.45,0011.84,0003.43
2023-07-25 17:54:00,SystemResetWarning,0834.1,5.02,000.00,029.0,025.5,000.0,037.1,030.3,22.0,0000.0,0004.46,0011.88,0003.44
2023-07-25 17:55:00,SystemResetWarning,0834.1,5.00,000.00,028.9,025.6,000.0,037.1,030.3,24.1,0000.0,0004.47,0012.65,0003.44
2023-07-25 17:56:00,SystemResetWarning,0834.2,5.00,000.00,028.9,026.0,000.0,037.1,030.3,28.1,0000.0,0004.46,0012.48,0003.45
2023-07-25 17:57:00,SystemResetWarning,0834.5,5.00,000.00,028.9,026.4,000.0,037.2,030.3,26.9,0000.0,0004.50,0012.15,0003.47
2023-07-25 17:58:00,SystemResetWarning,0834.3,5.00,000.00,028.9,026.8,000.0,037.2,030.4,26.9,0000.0,0004.57,0012.13,0003.47
2023-07-25 17:59:00,SystemResetWarning,0834.5,5.00,000.00,028.9,027.2,000.0,037.2,030.6,26.5,0000.0,0004.55,0012.09,0003.45
